This demonstration page uses our WeatherBlox Daily Observations layout. Learn more.

Hourly Observations for September 18, 2018

Temp ( °F °C ) Dew Point ( °F °C ) Humidity (%) Winds ( mph kmh ) Pressure ( in mb ) Visibility ( mi km ) Precip ( " mm )
12:15 am 00:15 Cloudy with Nearby Thunderstorms 70 21 70 21 100 100 SW 3 6 29.85 1011 10 16.09344 0 0
12:35 am 00:35 Cloudy with Nearby Thunderstorms 70 21 70 21 100 100 SSW 6 9 29.85 1011 10 16.09344 0 0
12:55 am 00:55 Cloudy with Nearby Thunderstorms 70 21 70 21 100 100 S 5 7 29.83 1010 10 16.09344 0 0
1:15 am 01:15 Cloudy 70 21 70 21 100 100 S 5 7 29.83 1010 10 16.09344 0 0
1:35 am 01:35 Cloudy with Nearby Thunderstorms 70 21 70 21 100 100 S 6 9 29.83 1010 10 16.09344 0 0
1:55 am 01:55 Cloudy with Nearby Thunderstorms 70 21 70 21 100 100 S 3 6 29.83 1010 10 16.09344 0 0
2:15 am 02:15 Mostly Cloudy with Nearby Thunderstorms 68 20 68 20 100 100 S 6 9 29.83 1010 10 16.09344 0 0
2:35 am 02:35 Mostly Cloudy with Nearby Thunderstorms 68 20 68 20 100 100 Calm 29.83 1010 10 16.09344 0 0
2:55 am 02:55 Cloudy 68 20 68 20 100 100 S 5 7 29.83 1010 10 16.09344 0 0
3:15 am 03:15 Cloudy 68 20 68 20 100 100 S 6 9 29.83 1010 10 16.09344 0 0
3:35 am 03:35 Cloudy 68 20 68 20 100 100 S 5 7 29.83 1010 10 16.09344 0 0
3:55 am 03:55 Cloudy 68 20 68 20 100 100 S 3 6 29.83 1010 10 16.09344 0 0
4:15 am 04:15 Cloudy 68 20 68 20 100 100 S 3 6 29.83 1010 10 16.09344 0 0
4:35 am 04:35 Cloudy 68 20 68 20 100 100 S 5 7 29.8 1009 10 16.09344 0 0
4:55 am 04:55 Cloudy 68 20 68 20 100 100 S 5 7 29.8 1009 10 16.09344 0 0
5:15 am 05:15 Cloudy 68 20 68 20 100 100 S 6 9 29.8 1009 10 16.09344 0 0
5:35 am 05:35 Cloudy 68 20 68 20 100 100 S 6 9 29.8 1009 10 16.09344 0 0
5:55 am 05:55 Cloudy 68 20 68 20 100 100 S 6 9 29.8 1009 10 16.09344 0 0
6:15 am 06:15 Cloudy 68 20 68 20 100 100 S 5 7 29.8 1009 10 16.09344 0 0
6:35 am 06:35 Cloudy 68 20 68 20 100 100 S 3 6 29.8 1009 10 16.09344 0 0
6:55 am 06:55 Cloudy 68 20 68 20 100 100 Calm 29.8 1009 10 16.09344 0 0
7:15 am 07:15 Cloudy with Mist and Fog 68 20 68 20 100 100 Calm 29.8 1009 4 6.437376 0 0
7:35 am 07:35 Cloudy with Mist and Fog 68 20 68 20 100 100 Calm 29.8 1009 1.75 2.816352 0 0
7:55 am 07:55 Cloudy with Mist and Fog 68 20 68 20 100 100 Calm 29.8 1009 1.75 2.816352 0 0
8:15 am 08:15 Cloudy with Mist and Fog 68 20 68 20 100 100 Calm 29.8 1009 1.75 2.816352 0 0
8:35 am 08:35 Cloudy with Mist and Fog 68 20 68 20 100 100 Calm 29.8 1009 2 3.218688 0 0
8:55 am 08:55 Cloudy with Mist and Fog 70 21 70 21 100 100 Calm 29.8 1009 2 3.218688 0 0
9:15 am 09:15 Cloudy with Mist and Fog 70 21 70 21 100 100 W 3 6 29.8 1009 3 4.828032 0 0
9:35 am 09:35 Cloudy 70 21 70 21 100 100 W 3 6 29.8 1009 10 16.09344 0 0
9:55 am 09:55 Cloudy 72 22 72 22 100 100 W 3 6 29.8 1009 10 16.09344 0 0
10:15 am 10:15 Cloudy with Mist and Fog 73 23 72 22 94 94 NNW 6 9 29.8 1009 1 1.609344 0 0
10:35 am 10:35 Cloudy with Light Rain 72 22 72 22 100 100 NW 7 11 29.8 1009 10 16.09344 0 0
10:55 am 10:55 Cloudy 72 22 72 22 100 100 NNW 7 11 29.8 1009 10 16.09344 0 0
11:15 am 11:15 Cloudy 73 23 72 22 94 94 N 10 17 29.8 1009 10 16.09344 0 0
11:35 am 11:35 Cloudy 73 23 72 22 94 94 N 8 13 29.8 1009 10 16.09344 0 0
11:55 am 11:55 Cloudy with Nearby Thunderstorms 73 23 72 22 94 94 NNW 15 24 29.8 1009 10 16.09344 0 0
12:15 pm 12:15 Cloudy 72 22 70 21 94 94 NNW 12 19 29.83 1010 10 16.09344 0 0
12:35 pm 12:35 Cloudy 72 22 70 21 94 94 N 8 13 29.83 1010 10 16.09344 0 0
12:55 pm 12:55 Cloudy 72 22 70 21 94 94 N 12 19 29.83 1010 10 16.09344 0 0
1:15 pm 13:15 Cloudy 72 22 70 21 94 94 N 8 13 29.83 1010 10 16.09344 0 0
1:35 pm 13:35 Cloudy 72 22 70 21 94 94 NNE 3 6 29.83 1010 10 16.09344 0 0
1:55 pm 13:55 Cloudy 75 24 72 22 89 89 N 9 15 29.8 1009 10 16.09344 0 0
2:15 pm 14:15 Cloudy 79 26 68 20 70 70 N 13 20 29.8 1009 10 16.09344 0 0
2:35 pm 14:35 Cloudy 81 27 68 20 66 66 N 20 31 29.8 1009 10 16.09344 0 0
2:55 pm 14:55 Cloudy 81 27 68 20 66 66 N 20 31 29.8 1009 10 16.09344 0 0
3:15 pm 15:15 Partly Cloudy 81 27 70 21 70 70 N 15 24 29.8 1009 10 16.09344 0 0
3:35 pm 15:35 Partly Cloudy 81 27 68 20 66 66 N 13 20 29.8 1009 10 16.09344 0 0
3:55 pm 15:55 Sunny 82 28 70 21 66 66 NNW 13 20 29.8 1009 10 16.09344 0 0
4:15 pm 16:15 Sunny 82 28 70 21 66 66 N 18 30 29.8 1009 10 16.09344 0 0
4:35 pm 16:35 Partly Cloudy 82 28 70 21 66 66 N 14 22 29.8 1009 10 16.09344 0 0
4:55 pm 16:55 Partly Cloudy 82 28 70 21 66 66 N 15 24 29.8 1009 10 16.09344 0 0
5:15 pm 17:15 Partly Cloudy 82 28 70 21 66 66 N 14 22 29.8 1009 10 16.09344 0 0
5:35 pm 17:35 Partly Cloudy 82 28 70 21 66 66 N 10 17 29.83 1010 10 16.09344 0 0
5:55 pm 17:55 Partly Cloudy 82 28 70 21 66 66 N 12 19 29.83 1010 10 16.09344 0 0
6:15 pm 18:15 Partly Cloudy 82 28 70 21 66 66 undefined N/A 29.83 1010 10 16.09344 0 0
6:35 pm 18:35 Sunny 81 27 68 20 66 66 N 12 19 29.83 1010 10 16.09344 0 0
6:55 pm 18:55 Sunny 81 27 68 20 66 66 NNW 8 13 29.83 1010 10 16.09344 0 0
7:15 pm 19:15 Clear 79 26 68 20 70 70 NNW 8 13 29.85 1011 10 16.09344 0 0
7:35 pm 19:35 Clear 77 25 68 20 74 74 NNW 6 9 29.85 1011 10 16.09344 0 0
7:55 pm 19:55 Clear 75 24 68 20 78 78 NNW 6 9 29.85 1011 10 16.09344 0 0
8:15 pm 20:15 Clear 75 24 68 20 78 78 NNW 5 7 29.85 1011 10 16.09344 0 0
8:35 pm 20:35 Clear 75 24 68 20 78 78 NNW 7 11 29.88 1012 10 16.09344 0 0
8:55 pm 20:55 Clear 73 23 68 20 83 83 NW 8 13 29.88 1012 10 16.09344 0 0
9:15 pm 21:15 Clear 73 23 68 20 83 83 NNW 9 15 29.88 1012 10 16.09344 0 0
9:35 pm 21:35 Clear 73 23 68 20 83 83 NNW 9 15 29.88 1012 10 16.09344 0 0
9:55 pm 21:55 Clear 73 23 68 20 83 83 NNW 9 15 29.88 1012 10 16.09344 0 0
10:15 pm 22:15 Clear 73 23 68 20 83 83 N 6 9 29.88 1012 10 16.09344 0 0
10:35 pm 22:35 Clear 73 23 68 20 83 83 N 6 9 29.88 1012 10 16.09344 0 0
10:55 pm 22:55 Clear 73 23 68 20 83 83 N 5 7 29.88 1012 10 16.09344 0 0
11:15 pm 23:15 Clear 73 23 68 20 83 83 NNE 6 9 29.88 1012 10 16.09344 0 0
11:35 pm 23:35 Clear 73 23 68 20 83 83 N 6 9 29.88 1012 10 16.09344 0 0
11:55 pm 23:55 Clear 73 23 68 20 83 83 N 7 11 29.88 1012 10 16.09344 0 0

Powered by AerisWeather